< < Back
Terminal Aerodrome Forecast


Current Version              Previous Versions:   1  2  3  4  5  6  7  8  9  

Terminal Aerodrome Forecast

307
FTUS42 KTAE 022108 AAA
TAFTLH
TAF AMD
KTLH 022108Z 0221/0318 34007KT P6SM VCSH SCT040 BKN100
     FM030000 23004KT P6SM BKN150
     FM031200 24008KT P6SM FEW030 SCT100=

Latest METAR

167
SAUS80 KWBC 040500 RRB
MTRTLH
METAR KTLH 040453Z AUTO 22003KT 10SM CLR 26/23 A3006 RMK AO2 SLP179
T02610228 403560239 $


USA.gov is the U.S. government's official web portal to all federal, state and local government web resources and services.